GW5111 Weather Reports


time (UTC)temp
C
wind
direction
speed
KPH
gust
KPH
rain 1hr
cm
rain 24hr
cm
rain mn
cm
humidity
%
barometer
mb
20260505140240 15 293 25.7 29.0 0.00 0.00 0.00 57 1016.6
20260505130204 15 289 14.5 38.6 0.00 0.00 0.00 62 1016.4
20260505124654 15 265 11.3 20.9 0.00 0.00 0.00 62 1016.2
20260505124151 15 283 17.7 25.7 0.00 0.00 0.00 62 1016.2
20260505123646 14 240 11.3 24.1 0.00 0.00 0.00 64 1016.1
20260505123144 14 278 17.7 24.1 0.00 0.00 0.00 62 1016.2
20260505122640 14 281 6.4 25.7 0.00 0.00 0.00 65 1015.9
20260505122138 14 274 17.7 25.7 0.00 0.00 0.00 64 1016.1
20260505121634 14 259 6.4 22.5 0.00 0.00 0.00 65 1016.1
20260505121131 13 265 9.7 17.7 0.00 0.00 0.00 66 1015.9
20260505120627 13 278 11.3 25.7 0.00 0.00 0.00 65 1015.7
20260505120123 13 269 11.3 14.5 0.00 0.00 0.00 65 1015.9
20260505115617 13 312 9.7 16.1 0.00 0.00 0.00 65 1015.8
20260505115115 13 288 12.9 17.7 0.00 0.00 0.00 66 1015.7
20260505114612 13 269 11.3 16.1 0.00 0.00 0.00 66 1015.6
20260505114108 13 282 11.3 16.1 0.00 0.00 0.00 67 1015.6
20260505113605 13 278 6.4 12.9 0.00 0.00 0.00 67 1015.6
20260505113102 13 321 8.0 12.9 0.00 0.00 0.00 67 1015.6
20260505112558 13 260 9.7 17.7 0.00 0.00 0.00 68 1015.6
20260505112056 12 263 11.3 12.9 0.00 0.00 0.00 68 1015.6
20260505111555 12 299 8.0 11.3 0.00 0.00 0.00 69 1015.6
20260505111052 12 278 9.7 12.9 0.00 0.00 0.00 70 1015.4
20260505110548 12 294 9.7 14.5 0.00 0.00 0.00 71 1015.5
20260505102021 11 274 8.0 11.3 0.00 0.00 0.00 74 1015.2
20260505101519 11 284 3.2 9.7 0.00 0.00 0.00 74 1015.2
20260505101015 11 287 4.8 9.7 0.00 0.00 0.00 74 1015.2
20260505100513 11 264 6.4 16.1 0.00 0.00 0.00 74 1015.0
20260505100010 11 266 8.0 11.3 0.00 0.00 0.00 74 1015.1
20260505095505 11 279 6.4 11.3 0.00 0.00 0.00 74 1015.0
20260505095001 11 259 9.7 12.9 0.00 0.00 0.00 74 1014.8
20260505094458 11 288 6.4 9.7 0.00 0.00 0.00 74 1015.1
20260505093954 11 293 6.4 11.3 0.00 0.00 0.00 74 1014.8
20260505093451 11 279 8.0 11.3 0.00 0.00 0.00 74 1015.0
20260505092949 11 284 9.7 14.5 0.00 0.00 0.00 73 1014.8
20260505092446 11 252 9.7 16.1 0.00 0.00 0.00 73 1015.1
20260505091944 12 265 4.8 9.7 0.00 0.00 0.00 73 1015.1
20260505091441 12 256 11.3 14.5 0.00 0.00 0.00 72 1015.1
20260505090939 12 289 12.9 16.1 0.00 0.00 0.00 72 1015.2
20260505090437 12 278 6.4 12.9 0.00 0.00 0.00 72 1015.2
20260505085934 11 276 6.4 9.7 0.00 0.00 0.00 72 1015.0
20260505085432 12 273 9.7 14.5 0.00 0.00 0.00 72 1015.2
20260505084930 12 275 8.0 9.7 0.00 0.00 0.00 72 1015.1
20260505084428 12 288 8.0 11.3 0.00 0.00 0.00 72 1015.3
20260505083925 12 272 8.0 11.3 0.00 0.00 0.00 72 1015.1
20260505083423 12 265 8.0 14.5 0.00 0.00 0.00 71 1015.2
20260505082918 11 289 8.0 9.7 0.00 0.00 0.00 72 1015.1
20260505082414 11 300 6.4 11.3 0.00 0.00 0.00 72 1015.2
20260505081912 12 282 6.4 9.7 0.00 0.00 0.00 72 1015.1
20260505081408 12 265 3.2 9.7 0.00 0.00 0.00 72 1015.0
20260505080905 12 286 6.4 9.7 0.00 0.00 0.00 71 1015.0
20260505080401 12 281 4.8 12.9 0.00 0.00 0.00 71 1014.8
20260505075857 12 264 6.4 12.9 0.00 0.00 0.00 70 1014.8
20260505075353 12 287 4.8 14.5 0.00 0.00 0.00 70 1014.8
20260505074851 12 275 6.4 11.3 0.00 0.00 0.00 70 1014.7
20260505074348 12 302 9.7 14.5 0.00 0.00 0.00 70 1015.0
20260505073845 12 256 9.7 11.3 0.00 0.00 0.00 70 1014.8
20260505073343 12 266 9.7 12.9 0.00 0.00 0.00 69 1014.6
20260505072840 12 310 6.4 14.5 0.00 0.00 0.00 68 1014.5
20260505072336 12 295 12.9 12.9 0.00 0.00 0.00 68 1014.6
20260505071832 12 291 9.7 14.5 0.00 0.00 0.00 68 1014.5
20260505071329 12 245 11.3 16.1 0.00 0.00 0.00 67 1014.5
20260505070827 13 289 11.3 12.9 0.00 0.00 0.00 67 1014.6
20260505070323 13 289 12.9 20.9 0.00 0.00 0.00 67 1014.4
20260505065818 13 279 9.7 14.5 0.00 0.00 0.00 66 1014.4
20260505065315 13 288 11.3 14.5 0.00 0.00 0.00 66 1014.6
20260505064813 13 287 9.7 12.9 0.00 0.00 0.00 66 1014.8
20260505064309 13 278 11.3 22.5 0.00 0.00 0.00 65 1014.5
20260505063808 13 292 14.5 30.6 0.00 0.00 0.00 64 1014.5
20260505063303 13 279 11.3 14.5 0.00 0.00 0.00 65 1014.4
20260505062800 13 252 11.3 20.9 0.00 0.00 0.00 65 1014.4
20260505062257 13 275 11.3 12.9 0.00 0.00 0.00 65 1014.5
20260505061754 13 284 9.7 12.9 0.00 0.00 0.00 65 1014.5
20260505061252 13 274 6.4 11.3 0.00 0.00 0.00 66 1014.4
20260505060749 13 249 6.4 16.1 0.00 0.00 0.00 65 1014.4
20260505060246 13 261 8.0 11.3 0.00 0.00 0.00 65 1014.4
20260505055742 13 275 9.7 12.9 0.00 0.00 0.00 65 1014.3
20260505055238 13 286 6.4 12.9 0.00 0.00 0.00 65 1014.3
20260505054736 13 272 4.8 9.7 0.00 0.00 0.00 66 1014.3
20260505054233 13 268 8.0 14.5 0.00 0.00 0.00 65 1014.4
20260505053732 13 283 6.4 11.3 0.00 0.00 0.00 65 1014.4
20260505053227 13 275 6.4 12.9 0.00 0.00 0.00 64 1014.3
20260505052725 13 278 6.4 14.5 0.00 0.00 0.00 64 1014.2
20260505052222 13 262 8.0 12.9 0.00 0.00 0.00 63 1014.4
20260505051719 13 303 8.0 11.3 0.00 0.00 0.00 64 1014.3
20260505051217 13 291 8.0 12.9 0.00 0.00 0.00 65 1014.3
20260505050715 13 265 8.0 12.9 0.00 0.00 0.00 65 1014.2
20260505050213 13 274 6.4 11.3 0.00 0.00 0.00 65 1014.2
20260505041648 13 281 6.4 12.9 0.00 0.00 0.00 64 1013.6
20260505041146 13 295 6.4 11.3 0.00 0.00 0.00 64 1013.9
20260505040643 13 283 8.0 12.9 0.00 0.00 0.00 64 1013.9
20260505040140 13 274 6.4 9.7 0.00 0.00 0.00 64 1013.7
20260505035636 13 274 6.4 9.7 0.00 0.00 0.00 64 1013.7
20260505035132 13 281 4.8 6.4 0.00 0.00 0.00 64 1014.0
20260505034629 13 253 3.2 6.4 0.00 0.00 0.00 64 1013.7
20260505034126 13 269 1.6 4.8 0.00 0.00 0.00 64 1014.0
20260505033622 12 278 1.6 4.8 0.00 0.00 0.00 64 1014.1
20260505033121 13 271 1.6 3.2 0.00 0.00 0.00 63 1014.2
20260505032619 13 239 6.4 9.7 0.00 0.00 0.00 63 1014.3
20260505032115 13 261 0.0 3.2 0.00 0.00 0.00 63 1014.2
20260505031612 13 276 3.2 4.8 0.00 0.00 0.00 61 1014.1
20260505031108 13 240 3.2 4.8 0.00 0.00 0.00 60 1014.3
20260505030605 13 213 0.0 4.8 0.00 0.00 0.00 59 1014.4
20260505025557 14 255 6.4 9.7 0.00 0.00 0.00 58 1014.3
20260505025056 14 271 9.7 11.3 0.00 0.00 0.00 58 1014.6
20260505024553 13 289 4.8 11.3 0.00 0.00 0.00 58 1014.3
20260505024050 13 295 6.4 9.7 0.00 0.00 0.00 58 1014.2
20260505023547 14 257 6.4 12.9 0.00 0.00 0.00 56 1014.5
20260505023045 13 274 3.2 9.7 0.00 0.00 0.00 57 1014.6
20260505022542 13 251 3.2 4.8 0.00 0.00 0.00 57 1014.4
20260505022039 14 282 4.8 6.4 0.00 0.00 0.00 56 1014.3
20260505021536 14 267 1.6 9.7 0.00 0.00 0.00 55 1014.4
20260505021033 14 269 9.7 11.3 0.00 0.00 0.00 54 1014.3
20260505020532 14 257 8.0 9.7 0.00 0.00 0.00 54 1014.4
20260505020030 15 261 8.0 12.9 0.00 0.00 0.00 53 1014.4
20260505015526 15 297 6.4 12.9 0.00 0.00 0.00 53 1014.2
20260505015023 15 261 6.4 12.9 0.00 0.00 0.00 53 1014.2
20260505014520 15 273 8.0 9.7 0.00 0.00 0.00 53 1014.2
20260505014018 15 261 6.4 11.3 0.00 0.00 0.00 53 1014.4
20260505013514 15 277 8.0 20.9 0.00 0.00 0.00 52 1014.2
20260505013012 15 259 9.7 14.5 0.00 0.00 0.00 51 1014.5
20260505012510 15 278 8.0 12.9 0.00 0.00 0.00 52 1014.2
20260505012006 15 274 8.0 14.5 0.00 0.00 0.00 53 1014.3
20260505011502 15 279 9.7 11.3 0.00 0.00 0.00 52 1014.3
20260505010959 15 297 14.5 16.1 0.00 0.00 0.00 52 1014.3
20260505010455 15 257 8.0 11.3 0.00 0.00 0.00 54 1014.2
20260505005951 15 284 4.8 11.3 0.00 0.00 0.00 54 1014.4
20260505005448 15 296 6.4 9.7 0.00 0.00 0.00 54 1014.0
20260505004946 15 251 6.4 9.7 0.00 0.00 0.00 53 1014.1
20260505004442 15 255 6.4 16.1 0.00 0.00 0.00 53 1014.0
20260505003939 15 268 6.4 6.4 0.00 0.00 0.00 53 1013.9
20260505003436 16 256 8.0 11.3 0.00 0.00 0.00 52 1014.1
20260505002932 15 263 9.7 14.5 0.00 0.00 0.00 52 1013.9
20260505002429 16 189 6.4 11.3 0.00 0.00 0.00 51 1014.0
20260505001927 16 269 9.7 14.5 0.00 0.00 0.00 50 1014.1
20260505001424 16 273 3.2 14.5 0.00 0.00 0.00 50 1014.0
20260505000921 16 262 3.2 12.9 0.00 0.00 0.00 50 1014.0
20260505000420 16 263 8.0 11.3 0.00 0.00 0.00 48 1013.9
20260504235916 16 287 6.4 9.7 0.00 0.00 0.00 47 1013.9
20260504235413 16 281 6.4 14.5 0.00 0.00 0.00 45 1014.0
20260504234909 17 270 8.0 12.9 0.00 0.00 0.00 45 1014.0
20260504234407 17 249 6.4 11.3 0.00 0.00 0.00 44 1013.7
20260504233903 17 298 8.0 20.9 0.00 0.00 0.00 43 1013.9
20260504233359 17 285 6.4 17.7 0.00 0.00 0.00 43 1013.9
20260504232855 18 268 11.3 17.7 0.00 0.00 0.00 43 1013.9
20260504232353 18 250 11.3 20.9 0.00 0.00 0.00 42 1013.9
20260504231849 18 278 8.0 17.7 0.00 0.00 0.00 43 1013.7
20260504231346 18 265 9.7 12.9 0.00 0.00 0.00 43 1013.9
20260504230842 18 288 12.9 24.1 0.00 0.00 0.00 43 1013.5
20260504230340 18 287 11.3 20.9 0.00 0.00 0.00 44 1013.7
20260504225839 18 272 14.5 25.7 0.00 0.00 0.00 44 1013.7
20260504225335 18 263 9.7 16.1 0.00 0.00 0.00 47 1014.0
20260504224833 18 259 12.9 22.5 0.00 0.00 0.00 46 1013.7
20260504224329 18 274 16.1 17.7 0.00 0.00 0.00 46 1013.7
20260504223826 18 286 6.4 12.9 0.00 0.00 0.00 47 1013.9
20260504223321 19 282 16.1 20.9 0.00 0.00 0.00 45 1013.7
20260504222818 19 206 8.0 17.7 0.00 0.00 0.00 49 1013.7
20260504222315 19 197 8.0 14.5 0.00 0.00 0.00 47 1013.9
20260504221814 18 288 9.7 30.6 0.00 0.00 0.00 45 1014.0
20260504221310 19 267 17.7 30.6 0.00 0.00 0.00 43 1013.7
20260504220807 19 321 9.7 14.5 0.00 0.00 0.00 43 1013.9
20260504220303 18 322 12.9 22.5 0.00 0.00 0.00 44 1013.7
20260504215801 19 316 8.0 27.4 0.00 0.00 0.00 45 1013.7
20260504215257 18 298 14.5 25.7 0.00 0.00 0.00 45 1013.7
20260504214753 19 332 19.3 25.7 0.00 0.00 0.00 45 1014.0
20260504214250 19 279 29.0 33.8 0.00 0.00 0.00 41 1013.9
20260504213747 18 252 14.5 20.9 0.00 0.00 0.00 49 1014.0
20260504213243 18 318 6.4 25.7 0.00 0.00 0.00 52 1013.7
20260504212740 19 252 17.7 22.5 0.00 0.00 0.00 49 1013.9
20260504212236 19 259 8.0 22.5 0.00 0.00 0.00 49 1013.7
20260504211734 18 260 14.5 20.9 0.00 0.00 0.00 52 1013.7
20260504211230 18 311 6.4 16.1 0.00 0.00 0.00 52 1013.7
20260504210728 18 266 16.1 20.9 0.00 0.00 0.00 50 1013.9
20260504210225 19 275 17.7 17.7 0.00 0.00 0.00 49 1014.1
20260504205722 19 297 8.0 16.1 0.00 0.00 0.00 50 1014.1
20260504205220 19 253 16.1 22.5 0.00 0.00 0.00 50 1014.0
20260504204717 19 285 12.9 17.7 0.00 0.00 0.00 48 1013.9
20260504204216 19 299 11.3 20.9 0.00 0.00 0.00 48 1014.0
20260504203715 18 247 17.7 29.0 0.00 0.00 0.00 48 1014.0
20260504203212 19 285 11.3 27.4 0.00 0.00 0.00 50 1014.1
20260504202712 19 298 17.7 24.1 0.00 0.00 0.00 48 1013.9
20260504202209 19 282 9.7 14.5 0.00 0.00 0.00 48 1014.1
20260504201706 19 311 14.5 20.9 0.00 0.00 0.00 51 1014.1
20260504201203 19 271 9.7 25.7 0.00 0.00 0.00 50 1013.7
20260504200701 19 288 11.3 22.5 0.00 0.00 0.00 50 1014.1
20260504200157 19 284 8.0 17.7 0.00 0.00 0.00 52 1013.9
20260504195653 19 304 16.1 20.9 0.00 0.00 0.00 51 1014.1
20260504195149 19 252 6.4 22.5 0.00 0.00 0.00 50 1014.2
20260504194646 18 303 12.9 20.9 0.00 0.00 0.00 51 1014.1
20260504194142 18 317 11.3 16.1 0.00 0.00 0.00 48 1014.1
20260504193639 18 284 17.7 20.9 0.00 0.00 0.00 48 1014.3
20260504193137 18 281 11.3 16.1 0.00 0.00 0.00 52 1014.2
20260504192635 18 317 12.9 16.1 0.00 0.00 0.00 52 1014.3
20260504192133 17 302 8.0 17.7 0.00 0.00 0.00 53 1014.5
20260504191631 16 292 9.7 22.5 0.00 0.00 0.00 55 1014.6
20260504191127 16 305 9.7 17.7 0.00 0.00 0.00 55 1014.5
20260504190623 16 301 8.0 12.9 0.00 0.00 0.00 58 1014.7
20260504190120 15 303 6.4 16.1 0.00 0.00 0.00 57 1014.5
20260504185616 15 340 6.4 20.9 0.00 0.00 0.00 61 1014.5
20260504185113 16 295 22.5 29.0 0.00 0.00 0.00 55 1015.2
20260504184609 17 316 17.7 25.7 0.00 0.00 0.00 54 1015.0
20260504184104 17 283 12.9 27.4 0.00 0.00 0.00 56 1014.8
20260504183601 17 289 8.0 27.4 0.00 0.00 0.00 57 1014.7
20260504183059 17 292 16.1 27.4 0.00 0.00 0.00 56 1014.8
20260504182556 17 278 8.0 16.1 0.00 0.00 0.00 55 1014.8
20260504182053 17 302 20.9 25.7 0.00 0.00 0.00 56 1015.1
20260504181550 16 279 9.7 24.1 0.00 0.00 0.00 60 1014.8
20260504181048 16 266 20.9 24.1 0.00 0.00 0.00 58 1015.0
20260504180547 16 280 19.3 24.1 0.00 0.00 0.00 58 1015.2
20260504180046 16 256 3.2 17.7 0.00 0.00 0.00 68 1015.2
20260504175542 16 323 8.0 22.5 0.00 0.00 0.00 64 1015.1
20260504175039 15 229 9.7 14.5 0.00 0.00 0.00 67 1015.2
20260504174537 15 281 14.5 14.5 0.00 0.00 0.00 63 1015.2
20260504174034 14 298 12.9 17.7 0.00 0.00 0.00 67 1015.4
20260504173531 14 300 12.9 17.7 0.00 0.00 0.00 67 1015.4
20260504173028 13 291 9.7 17.7 0.00 0.00 0.00 68 1015.4
20260504172524 13 269 11.3 16.1 0.00 0.00 0.00 70 1015.4
20260504172021 13 271 11.3 24.1 0.00 0.00 0.00 69 1015.2
20260504171518 13 283 14.5 24.1 0.00 0.00 0.00 68 1015.5
20260504171015 14 336 9.7 25.7 0.00 0.00 0.00 63 1015.5
20260504170510 14 273 8.0 14.5 0.00 0.00 0.00 65 1015.9
20260504160431 14 297 24.1 29.0 0.00 0.00 0.00 62 1016.5
20260504150854 11 267 9.7 16.1 0.00 0.00 0.00 70 1016.7
20260504150351 11 285 12.9 22.5 0.00 0.00 0.00 69 1016.8